TimePDT,TemperatureF,Dew PointF,Humidity,Sea Level PressureIn,VisibilityMPH,Wind Direction,Wind SpeedMPH,Gust SpeedMPH,PrecipitationIn,Events,Conditions,WindDirDegrees,DateUTC
12:53 AM,61.0,43.0,52,29.87,10.0,NW,6.9,-,N/A,,Mostly Cloudy,310,2013-05-17 07:53:00
1:53 AM,61.0,43.0,52,29.86,10.0,NW,8.1,-,N/A,,Overcast,320,2013-05-17 08:53:00
2:53 AM,60.1,43.0,53,29.86,10.0,NNW,6.9,-,N/A,,Overcast,330,2013-05-17 09:53:00
3:53 AM,60.1,43.0,53,29.86,10.0,NNW,5.8,-,N/A,,Mostly Cloudy,330,2013-05-17 10:53:00
5:53 AM,59.0,43.0,55,29.87,10.0,North,3.5,-,N/A,,Overcast,360,2013-05-17 12:53:00
6:53 AM,60.1,43.0,53,29.89,10.0,NNW,6.9,-,N/A,,Mostly Cloudy,330,2013-05-17 13:53:00
7:53 AM,60.1,46.0,60,29.90,10.0,WSW,4.6,-,N/A,,Mostly Cloudy,250,2013-05-17 14:53:00
8:53 AM,62.1,44.1,52,29.90,10.0,NW,10.4,-,N/A,,Overcast,320,2013-05-17 15:53:00
9:53 AM,66.9,44.1,44,29.90,10.0,NNW,10.4,-,N/A,,Mostly Cloudy,340,2013-05-17 16:53:00
10:53 AM,66.0,44.1,45,29.90,10.0,NW,3.5,-,N/A,,Mostly Cloudy,320,2013-05-17 17:53:00
11:53 AM,68.0,44.6,43,29.91,10.0,NW,9.2,17.3,N/A,,Mostly Cloudy,320,2013-05-17 18:53:00
12:53 PM,66.9,43.0,42,29.90,10.0,SW,3.5,-,N/A,,Mostly Cloudy,230,2013-05-17 19:53:00
1:53 PM,68.0,44.1,42,29.89,10.0,WSW,5.8,-,N/A,,Mostly Cloudy,250,2013-05-17 20:53:00
2:53 PM,68.0,44.1,42,29.89,10.0,NW,3.5,-,N/A,,Overcast,310,2013-05-17 21:53:00
3:53 PM,68.0,43.0,40,29.88,10.0,NW,12.7,16.1,N/A,,Overcast,320,2013-05-17 22:53:00
4:53 PM,68.0,43.0,40,29.89,10.0,NNW,18.4,21.9,N/A,,Mostly Cloudy,330,2013-05-17 23:53:00
5:53 PM,64.9,42.1,43,29.90,10.0,NW,16.1,23.0,N/A,,Mostly Cloudy,320,2013-05-18 00:53:00
6:53 PM,63.0,41.0,45,29.91,10.0,NW,12.7,-,N/A,,Overcast,320,2013-05-18 01:53:00
7:53 PM,61.0,42.1,50,29.93,10.0,NW,11.5,20.7,N/A,,Mostly Cloudy,310,2013-05-18 02:53:00
8:53 PM,59.0,39.0,48,29.95,10.0,WNW,5.8,-,N/A,,Overcast,290,2013-05-18 03:53:00
9:53 PM,59.0,39.0,48,29.96,10.0,NNW,8.1,-,N/A,,Overcast,340,2013-05-18 04:53:00
10:53 PM,55.9,39.0,53,29.97,10.0,NNW,4.6,-,N/A,,Clear,330,2013-05-18 05:53:00
11:53 PM,51.1,37.9,61,29.97,10.0,Calm,Calm,-,N/A,,Clear,0,2013-05-18 06:53:00